Weather in Russky

Russia / Primorsky Krai     43°01′01″N   131°54′22″E
temp.,
°C
wind,
m/s
gust,
m/s
humid.,
%
clouds,
%
prec.,
mm/h
press.,
hPa
HPBL,
m
30 november, tue
tue3001:00+1n7871100 0.0 1023343
04:00+1n6770100 0.0 1021311
07:000n7877100 0.0 1019324
10:00−1n7790100 0.3 1015308
13:00−2n8996100 4.6 1011278
16:00−3n121296100 12.9 1005332
19:00−3n192096100 11.3 1000547
22:00−4n202592100 19.6 999908
1 december, wed
wed101:00−3nnw202587100 0.8 10001263
04:00−4nnw182384100 1.0 10011362
07:00−4nnw172179100 0.1 10041456
10:00−4nnw15196799 0.1 10051587
13:00−4nw14176320 0.0 10061570
16:00−4nw1416619 0.0 10071610
19:00−5nw1317615 0.0 10101387
22:00−5nw1218581 0.0 10111411
2 december, thu
thu201:00−5nw1217545 0.0 10131305
04:00−4wnw1115575 0.0 10131066
07:00−4w89625 0.0 1013781
10:00−2w9116138 0.0 1012769
13:000wsw81356100 0.0 1009828
16:00+5sw101153100 0.0 10061215
19:00+5sw81056100 0.0 1005836
22:00+5wsw81463100 0.1 10041695
3 december, fri
fri301:00+3w121565100 0.0 1005963
04:00+1wnw11145796 0.0 10061301
07:00−2nw9136180 0.0 1008906
10:00−3nnw911595 0.0 10121243
13:00−4nnw11136189 0.0 10141443
16:00−3nnw10125930 0.0 10151594
19:00−4nnw8106058 0.0 10181349
22:00−4nw68575 0.0 1019971
4 december, sat
sat401:00−5nw586063 0.0 1018866
04:00−4nw6965100 0.0 10181090
07:00−5nw711662 0.0 10181214
10:00−6nnw1112663 0.0 10211293
13:00−8n10136680 0.0 10231653
16:00−6nnw101360100 0.0 10241872
19:00−7nnw1114616 0.0 10261521
22:00−7nnw1012640 0.0 10281108